Hourly Weather Bolshoy Suhodol

Today, 2 August, Monday

Time Temperature Precipitation Wind Pressure Humidity
00:00 +23°C° 0 mm 2 mps 736 mmHg 60%
01:00 +21°C° 0 mm 2 mps 736 mmHg 60%
02:00 +21°C° 0 mm 2 mps 736 mmHg 59%
03:00 +21°C° 0 mm 3 mps 736 mmHg 58%
04:00 +21°C° 0.1 mm 3 mps 736 mmHg 62%
05:00 +21°C° 0.1 mm 3 mps 736 mmHg 67%
06:00 +20°C° 0.1 mm 2 mps 736 mmHg 71%
07:00 +24°C° 0.1 mm 3 mps 736 mmHg 65%
08:00 +26°C° 0.1 mm 4 mps 735 mmHg 58%
09:00 +28°C° 0.1 mm 4 mps 735 mmHg 52%
10:00 +30°C° 0 mm 5 mps 735 mmHg 46%
11:00 +32°C° 0 mm 5 mps 735 mmHg 40%
12:00 +34°C° 0 mm 6 mps 735 mmHg 35%
13:00 +35°C° 0 mm 6 mps 734 mmHg 33%
14:00 +35°C° 0 mm 7 mps 734 mmHg 31%
15:00 +35°C° 0 mm 8 mps 734 mmHg 30%
16:00 +33°C° 0.1 mm 6 mps 733 mmHg 37%
17:00 +30°C° 0.1 mm 4 mps 733 mmHg 44%
18:00 +29°C° 0.1 mm 3 mps 733 mmHg 51%
19:00 +28°C° 0 mm 3 mps 732 mmHg 53%
20:00 +27°C° 0 mm 3 mps 732 mmHg 54%
21:00 +26°C° 0 mm 3 mps 732 mmHg 56%
22:00 +23°C° 0.4 mm 4 mps 732 mmHg 65%
23:00 +22°C° 0.4 mm 4 mps 733 mmHg 75%

Tomorrow, 3 August, Tuesday

Time Temperature Precipitation Wind Pressure Humidity
00:00 +20°C° 0.4 mm 5 mps 733 mmHg 85%
01:00 +20°C° 0 mm 4 mps 733 mmHg 86%
02:00 +19°C° 0 mm 4 mps 733 mmHg 87%
03:00 +19°C° 0 mm 3 mps 733 mmHg 88%
04:00 +19°C° 0 mm 3 mps 734 mmHg 90%
05:00 +18°C° 0 mm 2 mps 734 mmHg 91%
06:00 +18°C° 0 mm 2 mps 734 mmHg 92%
07:00 +19°C° 0 mm 2 mps 734 mmHg 86%
08:00 +20°C° 0 mm 2 mps 735 mmHg 81%
09:00 +22°C° 0 mm 3 mps 735 mmHg 75%
10:00 +22°C° 0.2 mm 3 mps 735 mmHg 70%
11:00 +24°C° 0.2 mm 3 mps 736 mmHg 66%
12:00 +25°C° 0.2 mm 4 mps 736 mmHg 61%
13:00 +25°C° 0.2 mm 4 mps 736 mmHg 60%
14:00 +25°C° 0.2 mm 4 mps 736 mmHg 59%
15:00 +25°C° 0.2 mm 4 mps 736 mmHg 57%
16:00 +25°C° 0 mm 4 mps 736 mmHg 55%
17:00 +25°C° 0 mm 4 mps 736 mmHg 53%
18:00 +25°C° 0 mm 4 mps 736 mmHg 50%
19:00 +24°C° 0 mm 3 mps 736 mmHg 55%
20:00 +21°C° 0 mm 3 mps 737 mmHg 60%
21:00 +20°C° 0 mm 2 mps 737 mmHg 64%
22:00 +19°C° 0 mm 2 mps 737 mmHg 68%
23:00 +18°C° 0 mm 3 mps 737 mmHg 72%

Day after tomorrow, 4 August, Wednesday

Time Temperature Precipitation Wind Pressure Humidity
00:00 +17°C° 0 mm 3 mps 738 mmHg 77%
01:00 +17°C° 0 mm 3 mps 738 mmHg 75%
02:00 +16°C° 0 mm 3 mps 738 mmHg 74%
03:00 +16°C° 0 mm 2 mps 738 mmHg 73%
04:00 +16°C° 0 mm 2 mps 738 mmHg 71%
05:00 +16°C° 0 mm 2 mps 739 mmHg 70%
06:00 +16°C° 0 mm 2 mps 739 mmHg 69%
07:00 +18°C° 0 mm 2 mps 739 mmHg 63%
08:00 +19°C° 0 mm 2 mps 739 mmHg 57%
09:00 +21°C° 0 mm 2 mps 740 mmHg 52%
10:00 +22°C° 0 mm 3 mps 740 mmHg 48%
11:00 +24°C° 0 mm 3 mps 740 mmHg 44%
12:00 +25°C° 0 mm 3 mps 740 mmHg 40%
13:00 +25°C° 0 mm 3 mps 740 mmHg 39%
14:00 +25°C° 0 mm 3 mps 740 mmHg 38%
15:00 +25°C° 0 mm 3 mps 740 mmHg 37%
16:00 +24°C° 0 mm 3 mps 740 mmHg 39%
17:00 +24°C° 0 mm 3 mps 740 mmHg 41%
18:00 +22°C° 0 mm 3 mps 740 mmHg 43%
19:00 +21°C° 0 mm 2 mps 740 mmHg 46%
20:00 +20°C° 0 mm 2 mps 740 mmHg 50%
21:00 +19°C° 0 mm 1 mps 740 mmHg 53%
22:00 +19°C° 0 mm 1 mps 740 mmHg 55%
23:00 +18°C° 0 mm 1 mps 740 mmHg 57%

5 August, Thursday

Time Temperature Precipitation Wind Pressure Humidity
00:00 +16°C° 0 mm 1 mps 741 mmHg 59%
01:00 +16°C° 0 mm 1 mps 741 mmHg 59%
02:00 +16°C° 0 mm 1 mps 741 mmHg 60%
03:00 +16°C° 0 mm 1 mps 741 mmHg 61%
04:00 +16°C° 0 mm 1 mps 741 mmHg 61%
05:00 +18°C° 0 mm 1 mps 741 mmHg 60%
06:00 +17°C° 0 mm 2 mps 741 mmHg 60%
07:00 +18°C° 0 mm 2 mps 741 mmHg 57%
08:00 +19°C° 0 mm 2 mps 741 mmHg 55%
09:00 +20°C° 0 mm 2 mps 742 mmHg 52%
10:00 +20°C° 0.4 mm 3 mps 742 mmHg 60%
11:00 +19°C° 0.4 mm 3 mps 742 mmHg 67%
12:00 +18°C° 0.4 mm 3 mps 742 mmHg 75%
13:00 +18°C° 0.1 mm 2 mps 742 mmHg 72%
14:00 +19°C° 0.1 mm 2 mps 741 mmHg 68%
15:00 +20°C° 0.1 mm 1 mps 741 mmHg 65%
16:00 +21°C° 0 mm 1 mps 741 mmHg 62%
17:00 +21°C° 0 mm 1 mps 741 mmHg 59%
18:00 +22°C° 0 mm 1 mps 741 mmHg 56%
19:00 +21°C° 0 mm 1 mps 741 mmHg 61%
20:00 +18°C° 0 mm 2 mps 740 mmHg 66%
21:00 +17°C° 0 mm 2 mps 740 mmHg 71%
22:00 +16°C° 0.1 mm 2 mps 740 mmHg 74%
23:00 +16°C° 0.1 mm 2 mps 740 mmHg 76%

6 August, Friday

Time Temperature Precipitation Wind Pressure Humidity
00:00 +16°C° 0.1 mm 3 mps 740 mmHg 78%
01:00 +16°C° 0 mm 3 mps 740 mmHg 79%
02:00 +16°C° 0 mm 2 mps 740 mmHg 80%
03:00 +16°C° 0 mm 2 mps 740 mmHg 81%
04:00 +16°C° 0 mm 2 mps 740 mmHg 82%
05:00 +16°C° 0 mm 2 mps 740 mmHg 83%
06:00 +16°C° 0 mm 3 mps 740 mmHg 85%
07:00 +18°C° 0 mm 3 mps 740 mmHg 75%
08:00 +19°C° 0 mm 4 mps 740 mmHg 66%
09:00 +21°C° 0 mm 4 mps 740 mmHg 57%
10:00 +23°C° 0 mm 4 mps 740 mmHg 52%
11:00 +25°C° 0 mm 4 mps 740 mmHg 46%
12:00 +27°C° 0 mm 3 mps 740 mmHg 41%
13:00 +28°C° 0 mm 3 mps 740 mmHg 39%
14:00 +29°C° 0 mm 3 mps 740 mmHg 37%
15:00 +29°C° 0 mm 3 mps 739 mmHg 36%
16:00 +29°C° 0 mm 3 mps 739 mmHg 38%
17:00 +28°C° 0 mm 3 mps 739 mmHg 40%
18:00 +28°C° 0 mm 3 mps 739 mmHg 42%
19:00 +26°C° 0 mm 3 mps 739 mmHg 45%
20:00 +25°C° 0 mm 3 mps 739 mmHg 48%
21:00 +23°C° 0 mm 4 mps 739 mmHg 51%
22:00 +22°C° 0 mm 4 mps 739 mmHg 52%
23:00 +21°C° 0 mm 4 mps 739 mmHg 53%

7 August, Saturday

Time Temperature Precipitation Wind Pressure Humidity
00:00 +21°C° 0 mm 5 mps 739 mmHg 55%
01:00 +20°C° 0 mm 5 mps 739 mmHg 56%
02:00 +20°C° 0 mm 5 mps 739 mmHg 57%
03:00 +20°C° 0 mm 5 mps 739 mmHg 59%
04:00 +19°C° 0 mm 5 mps 739 mmHg 59%
05:00 +19°C° 0 mm 5 mps 739 mmHg 60%
06:00 +19°C° 0 mm 5 mps 739 mmHg 60%
07:00 +21°C° 0 mm 5 mps 740 mmHg 54%
08:00 +23°C° 0 mm 5 mps 740 mmHg 48%
09:00 +27°C° 0 mm 6 mps 740 mmHg 42%
10:00 +28°C° 0 mm 6 mps 740 mmHg 37%
11:00 +30°C° 0 mm 6 mps 740 mmHg 33%
12:00 +33°C° 0 mm 6 mps 740 mmHg 28%
13:00 +33°C° 0 mm 6 mps 740 mmHg 28%
14:00 +34°C° 0 mm 5 mps 740 mmHg 27%
15:00 +34°C° 0 mm 5 mps 740 mmHg 26%
16:00 +33°C° 0 mm 4 mps 740 mmHg 28%
17:00 +33°C° 0 mm 4 mps 740 mmHg 30%
18:00 +31°C° 0 mm 3 mps 740 mmHg 32%
19:00 +30°C° 0 mm 3 mps 740 mmHg 35%
20:00 +28°C° 0 mm 3 mps 740 mmHg 37%
21:00 +27°C° 0 mm 4 mps 740 mmHg 40%
22:00 +26°C° 0 mm 4 mps 741 mmHg 42%
23:00 +25°C° 0 mm 4 mps 741 mmHg 44%
Show more

We Need Your Consent

Meteoprog and our Service Providers may store and access personal data such as cookies, device identifiers or other similar technologies on your device and process such data to personalise content and ads, as well as provide social media features and to analyse the traffic.

  • Store and/or access information on your device

    Cookies, device identifiers or other information can be stored or accessed on your device for the purposes indicated above.

  • Personalised ads and content, ad and content measurement, audience insights, and products development

    Ads and content can be personalised based on a profile. More data can be added to better personalise ads and content. Ad and content performance can be measured. Insights about the audience who saw the ads and content can be derived. Such data can be used to develop or improve user’s experience, systems and software.

By clicking ‘I Agree’ you will allow the use of indicated cookies, device identifiers, web beacons or other similar technologies. Your settings can be changed in the browser on your device.

For certain purposes, legitimate interests may be relied on, rather than consent. You can read more about this in our Privacy and Cookie Policy.